TimeEST,TemperatureF,Dew PointF,Humidity,Sea Level PressureIn,VisibilityMPH,Wind Direction,Wind SpeedMPH,Gust SpeedMPH,PrecipitationIn,Events,Conditions,WindDirDegrees,DateUTC
12:51 AM,46.0,26.1,46,29.99,10.0,SW,8.1,18.4,N/A,,Clear,230,2013-01-20 05:51:00
1:51 AM,46.4,26.6,46,30.00,10.0,SW,11.5,20.7,N/A,,Clear,230,2013-01-20 06:51:00
2:51 AM,45.0,27.0,49,30.01,10.0,SW,10.4,-,N/A,,Clear,230,2013-01-20 07:51:00
3:51 AM,44.1,28.0,53,30.00,10.0,SW,10.4,-,N/A,,Clear,230,2013-01-20 08:51:00
4:51 AM,44.1,28.0,53,30.01,10.0,SW,9.2,-,N/A,,Clear,220,2013-01-20 09:51:00
5:51 AM,43.0,28.9,58,30.02,10.0,SW,9.2,-,N/A,,Clear,230,2013-01-20 10:51:00
6:51 AM,43.0,30.9,62,30.04,10.0,WSW,8.1,16.1,N/A,,Mostly Cloudy,250,2013-01-20 11:51:00
7:51 AM,42.1,30.9,65,30.06,10.0,WSW,11.5,-,N/A,,Clear,240,2013-01-20 12:51:00
8:51 AM,43.0,30.9,62,30.09,10.0,WSW,10.4,17.3,N/A,,Clear,250,2013-01-20 13:51:00
9:51 AM,44.1,30.0,58,30.12,10.0,West,12.7,23.0,N/A,,Mostly Cloudy,270,2013-01-20 14:51:00
10:51 AM,44.6,26.6,49,30.14,10.0,WNW,11.5,19.6,N/A,,Scattered Clouds,300,2013-01-20 15:51:00
11:51 AM,44.1,25.0,47,30.16,10.0,West,9.2,18.4,N/A,,Partly Cloudy,280,2013-01-20 16:51:00
12:51 PM,43.0,10.9,27,30.15,10.0,NW,15.0,19.6,N/A,,Clear,310,2013-01-20 17:51:00
1:51 PM,44.1,10.9,26,30.14,10.0,NW,10.4,-,N/A,,Clear,310,2013-01-20 18:51:00
2:51 PM,44.1,10.9,26,30.14,10.0,Variable,6.9,18.4,N/A,,Clear,0,2013-01-20 19:51:00
3:51 PM,44.1,8.1,23,30.14,10.0,West,6.9,-,N/A,,Clear,260,2013-01-20 20:51:00
4:51 PM,41.0,3.9,21,30.14,10.0,West,6.9,-,N/A,,Clear,270,2013-01-20 21:51:00
5:51 PM,39.2,6.8,26,30.14,10.0,Variable,3.5,-,N/A,,Clear,0,2013-01-20 22:51:00
6:51 PM,37.0,9.0,31,30.17,10.0,NW,5.8,-,N/A,,Clear,320,2013-01-20 23:51:00
7:51 PM,35.1,10.9,37,30.18,10.0,NNW,6.9,-,N/A,,Partly Cloudy,330,2013-01-21 00:51:00
8:51 PM,33.1,12.0,42,30.18,10.0,NW,3.5,-,N/A,,Mostly Cloudy,310,2013-01-21 01:51:00
9:51 PM,32.0,10.4,41,30.16,10.0,NW,5.8,-,N/A,,Mostly Cloudy,310,2013-01-21 02:51:00
10:51 PM,30.9,12.0,46,30.17,10.0,North,3.5,-,N/A,,Clear,360,2013-01-21 03:51:00
11:51 PM,28.0,12.0,51,30.16,10.0,Calm,Calm,-,N/A,,Clear,0,2013-01-21 04:51:00